Cloud_Cover
100 100 100 100 100 100 100 100 100 100 100 100 100 100 100 100 100 65 98 85 95 100 99 99 100 100 90 6 30 32 93 100 82 15 35 5 8 49 33 23 5 19 45 40 98
100 100 100 100 100 100 100 100 79 58 100 100 100 100 100 100 100 78 91 100 94 19 5 6 47 100 100 100 98 63 91 91 100 100 100 26 11 8 10 69 39 26 36 28 99
100 100 100 100 100 100 100 100 100 99 99 99 90 100 100 100 100 90 98 11 26 9 14 5 5 5 51 97 100 100 100 100 100 9 42 64 10 72 17 50 73 36 59 100 100
100 100 100 100 100 100 100 100 100 100 100 100 100 100 18 82 100 100 100 49 5 27 17 18 5 4 0 5 80 100 100 100 100 100 92 68 31 8 57 99 40 5 80 99 99
100 100 100 100 100 100 100 100 98 12 95 100 100 100 88 100 100 38 100 96 90 91 44 61 88 24 32 5 1 5 21 85 100 90 75 58 24 5 91 66 5 5 99 51 17
100 100 100 100 98 100 100 100 98 88 99 100 100 98 78 100 100 95 45 13 13 87 87 100 99 31 7 12 2 1 4 5 5 97 9 94 6 20 78 96 49 69 100 19 14
100 98 100 100 100 100 100 83 75 99 100 100 100 100 100 100 100 100 100 94 32 32 98 12 6 5 5 12 4 2 0 0 73 100 69 55 4 35 6 14 92 100 98 64 22
100 100 100 100 100 100 100 100 100 99 98 100 100 100 100 100 62 100 100 100 77 100 100 73 5 23 30 16 5 4 0 4 98 100 36 7 12 18 40 23 100 100 100 68 100
100 100 100 100 100 100 100 95 74 100 100 100 100 97 100 100 100 100 100 100 100 78 100 95 5 90 44 37 6 5 2 3 46 100 78 9 78 99 17 7 5 78 99 100 100
100 100 100 100 100 100 100 100 100 81 98 100 100 100 100 100 100 100 81 100 82 76 86 75 8 37 35 39 6 5 5 53 5 100 64 9 10 54 85 5 23 60 100 100 100
93 100 100 100 100 100 100 96 100 100 100 100 100 100 100 100 100 89 100 34 76 8 57 22 4 98 86 22 5 75 20 53 100 100 75 71 5 5 7 34 66 27 96 100 100
100 100 99 100 100 97 100 100 100 100 100 76 100 77 100 100 98 100 34 5 32 79 94 5 17 90 64 36 74 10 44 98 100 100 16 26 5 5 27 85 78 61 51 100 100
100 100 99 100 100 70 100 91 98 100 100 65 91 77 32 70 100 100 93 6 6 68 53 12 14 82 48 44 70 67 98 100 91 98 3 5 13 94 92 100 100 100 100 100 100
100 100 100 100 63 100 99 100 92 96 95 98 98 5 5 5 66 100 100 59 20 6 90 58 5 80 100 39 100 100 100 100 55 47 19 8 24 94 100 100 100 100 100 100 100
100 100 100 100 100 100 89 69 96 100 100 84 3 2 0 5 5 20 11 54 53 74 99 7 64 100 64 100 100 75 100 94 100 100 15 9 9 100 100 100 100 100 100 100 100
36 79 100 79 97 100 99 100 100 70 96 45 6 36 31 5 1 4 5 6 68 58 94 84 100 100 100 100 100 100 88 100 100 100 7 99 99 96 96 100 100 100 100 100 100
37 100 100 100 45 100 100 66 100 100 29 100 96 4 43 9 4 4 36 91 70 97 100 100 100 97 100 100 100 100 100 100 100 100 95 100 100 98 100 100 100 100 100 100 100
17 5 5 84 100 89 99 100 98 63 100 46 32 8 20 1 0 5 49 99 93 97 100 70 100 100 100 100 100 100 100 100 100 89 96 100 100 100 100 100 100 100 100 100 100
100 100 75 97 100 100 100 100 35 1 3 41 3 5 0 0 0 3 5 7 16 73 100 100 41 93 100 100 100 100 100 100 100 100 74 75 99 100 100 100 100 100 100 100 100
72 100 95 100 100 100 100 100 53 5 5 16 5 5 0 2 6 26 19 5 5 10 72 100 85 98 100 100 89 100 100 100 100 100 99 83 100 100 100 100 100 100 100 100 100
38 33 92 100 100 100 100 100 45 33 5 44 33 17 5 3 37 100 43 5 35 18 16 98 100 65 95 100 100 100 100 100 100 100 82 9 34 100 100 100 100 100 100 100 100
100 94 100 100 100 100 100 100 99 5 39 98 67 28 64 93 5 5 30 99 95 100 100 97 100 100 100 100 100 100 100 100 100 100 99 81 25 36 66 99 100 100 100 100 100
96 100 100 100 100 100 100 100 100 100 100 100 100 100 100 100 44 6 50 88 93 100 100 98 88 100 98 100 100 100 100 100 100 100 100 100 100 100 100 100 100 98 100 100 100
100 100 100 100 100 100 100 100 100 100 100 100 100 100 100 100 100 100 89 42 99 100 100 97 100 100 100 100 100 100 100 100 100 100 100 100 100 100 100 98 94 100 84 89 100
76 100 100 98 100 100 100 100 100 100 100 100 100 100 100 100 100 100 100 99 100 100 100 44 95 100 97 100 100 100 100 100 100 100 100 100 100 100 100 100 97 100 100 100 100
94 93 100 100 100 100 100 100 100 100 100 100 100 100 100 100 100 100 100 100 100 100 100 81 56 70 83 100 100 100 100 100 100 100 100 100 25 100 100 100 100 100 100 100 100
69 36 99 100 100 100 100 100 100 100 100 100 100 100 100 100 100 100 100 100 100 100 100 100 100 100 42 94 100 100 100 100 100 100 100 100 100 100 100 100 100 100 100 100 100